GFSGBSN_sfc_rhum_000.txt.gz
RH
86 84 83 81 81 82 81 80 85 90 91 91 91 91 89 86 86 90 93 94 94 93 90 88 91 89 62 34 26 16 50 34 16 18 18 17 20 23 26 25 22 21 21 19 17 17 19
86 86 86 86 85 84 83 84 86 89 90 90 91 91 91 90 90 92 94 94 94 94 90 88 91 92 44 32 17 15 16 16 16 17 17 16 21 20 25 23 25 27 23 21 18 19 20
82 87 87 89 89 90 89 90 90 89 89 89 90 89 90 90 90 92 93 95 94 93 90 88 88 60 57 23 18 20 18 18 16 20 19 17 21 19 23 28 24 24 25 22 21 21 20
86 85 86 89 90 91 92 92 90 88 89 89 89 89 88 87 88 89 91 91 92 91 90 89 88 65 32 17 20 16 18 19 17 17 19 16 17 22 28 25 26 27 28 30 20 21 17
86 84 86 89 91 92 92 92 92 88 88 89 88 88 87 87 86 86 83 86 90 90 93 91 71 60 32 23 19 17 18 19 18 20 22 16 24 27 24 31 31 30 30 30 22 18 19
82 83 86 90 92 92 92 92 92 91 90 90 88 87 86 85 86 86 86 84 89 89 84 65 46 43 24 23 20 18 15 15 20 24 23 28 30 31 31 31 36 34 29 35 32 24 30
78 80 86 90 92 92 91 92 93 92 91 91 89 87 85 84 85 84 63 53 52 37 42 26 26 26 20 16 19 16 16 18 22 29 34 26 30 33 29 31 29 30 32 37 32 27 33
78 79 87 90 92 92 91 91 93 93 91 90 90 88 86 85 83 79 72 54 58 53 45 23 21 20 18 19 24 19 17 23 28 29 23 29 35 27 22 26 29 28 39 39 34 29 37
76 79 87 90 91 91 90 91 92 93 92 90 89 89 90 87 83 68 57 64 64 66 59 24 24 23 19 20 25 22 20 25 31 27 27 33 28 23 24 28 28 32 40 41 39 38 40
74 78 86 89 92 92 92 92 92 93 93 91 90 90 91 86 51 64 62 54 62 71 63 31 27 24 20 21 29 19 20 26 26 29 28 30 24 21 29 30 32 36 30 36 40 46 52
76 79 85 89 91 92 92 93 92 92 94 92 90 90 89 82 71 60 57 66 76 66 79 31 24 19 19 22 22 20 20 26 30 27 27 29 26 26 30 29 32 33 34 41 45 52 54
76 82 85 88 91 92 93 93 92 92 93 92 90 91 89 72 73 69 74 83 71 88 79 35 26 28 28 25 21 24 31 29 34 37 35 27 24 27 30 31 37 34 42 50 53 53 69
80 83 84 89 92 92 93 92 93 92 92 93 91 89 72 71 67 77 88 73 82 75 37 34 34 29 32 30 28 32 40 44 50 48 57 42 33 30 34 40 39 44 60 83 74 81 77
88 87 86 89 92 92 93 93 92 92 92 93 92 86 81 77 85 82 78 79 66 50 38 30 31 30 37 32 32 38 41 49 44 48 62 68 65 43 32 43 47 49 58 86 83 88 79
92 87 86 89 93 92 92 92 92 91 92 93 88 87 80 75 81 90 73 86 70 48 33 34 32 38 40 33 32 39 49 49 46 48 59 76 59 44 37 38 42 49 66 53 70 94 89
92 90 86 88 93 92 92 92 91 90 88 91 76 85 71 75 80 79 86 61 43 33 36 40 46 43 49 45 45 44 49 47 48 47 51 61 73 55 48 45 44 47 45 69 85 89 96
88 90 90 91 93 92 92 91 91 91 88 87 91 67 59 74 77 75 80 60 37 30 36 42 49 53 50 55 54 52 56 50 47 46 52 60 67 65 54 56 60 54 71 62 62 83 96
89 90 92 94 94 93 91 90 91 93 89 83 89 64 52 70 66 92 60 43 46 37 41 44 49 50 54 56 59 57 60 53 47 53 65 62 74 87 62 51 49 54 62 66 91 83 90
88 90 92 93 94 93 91 90 91 93 94 90 81 78 69 66 81 91 52 46 48 44 46 48 51 50 50 58 66 60 59 54 51 56 60 59 77 87 63 53 58 64 57 63 73 86 88
90 90 92 95 94 92 91 91 92 92 93 93 73 87 85 81 78 56 54 57 52 46 46 45 48 48 53 61 56 60 59 57 58 57 65 62 72 74 83 67 73 76 62 58 71 94 84
91 90 92 96 94 92 92 93 95 92 91 86 82 75 73 87 78 61 62 58 56 59 48 45 51 54 59 71 66 77 68 65 59 70 63 65 80 77 72 67 70 68 68 68 75 70 88
95 94 96 97 94 93 95 98 97 92 92 77 78 83 79 80 65 57 74 55 54 47 52 54 61 65 63 74 70 80 73 75 72 66 76 74 89 87 84 75 79 84 74 72 70 67 68
96 97 97 95 93 92 98 98 97 93 91 86 89 82 74 85 74 80 81 57 55 55 59 46 52 60 71 70 64 64 65 66 68 74 82 81 92 97 80 92 95 91 80 69 60 58 62
96 96 97 95 94 93 98 98 96 95 93 96 93 87 84 89 92 74 62 55 58 58 62 56 55 64 60 62 64 66 66 71 84 78 75 90 97 98 98 97 99 64 56 54 61 60 60
96 96 96 96 94 94 96 98 93 94 95 93 96 90 94 96 96 80 66 63 60 63 67 61 63 58 69 77 86 82 83 69 66 70 86 81 98 98 98 98 80 68 59 67 74 70 77
97 96 96 96 96 94 95 93 92 93 95 95 96 94 88 94 87 69 68 68 84 83 79 75 68 68 83 100 94 97 90 81 77 65 84 92 94 90 96 99 93 67 55 59 65 85 76
97 97 97 96 96 96 96 95 92 92 93 93 94 92 92 98 84 70 79 79 73 85 84 85 79 78 83 100 99 93 91 81 90 89 83 98 98 97 100 99 88 64 55 63 81 70 77
97 97 97 97 97 96 96 96 95 93 92 92 94 93 92 97 91 78 71 74 81 86 91 77 80 89 100 98 99 97 95 90 97 77 76 74 89 97 98 99 95 63 61 80 74 80 68
98 98 98 98 97 97 97 97 96 94 92 94 93 96 95 95 83 89 85 82 74 67 85 86 81 80 95 98 100 99 100 100 99 91 74 84 78 84 82 83 67 64 62 65 71 63 74

GFSGBSN_sfc_rhum_003.txt.gz
RH
86 81 81 82 83 85 83 82 84 89 90 92 92 91 88 84 86 86 92 95 95 94 94 91 91 93 64 28 28 18 54 36 20 22 18 19 21 25 27 26 25 23 22 21 20 20 22
82 82 84 86 88 86 84 86 87 90 90 90 91 92 93 91 90 92 95 95 96 96 94 91 92 92 43 28 18 18 20 18 18 20 19 17 21 24 25 26 25 28 25 22 22 22 23
80 84 88 90 91 91 91 92 90 89 88 89 89 90 91 92 92 93 94 96 96 96 94 91 90 62 44 24 18 22 18 22 22 21 21 19 23 20 27 28 24 24 24 24 25 24 23
82 84 86 91 92 93 95 94 90 88 89 88 88 88 88 88 89 90 91 93 95 94 92 91 90 62 33 19 22 18 19 19 19 20 24 22 21 25 25 26 28 25 28 29 21 26 22
83 83 87 91 93 94 95 94 92 89 88 88 88 86 87 87 87 88 90 92 94 92 92 90 64 51 34 26 21 21 20 18 17 20 23 19 22 29 27 28 30 33 34 31 24 23 26
79 82 88 92 93 94 94 94 93 91 90 89 87 86 86 86 86 88 89 92 93 92 74 55 46 36 23 23 21 18 17 18 21 23 25 25 31 28 32 31 36 37 33 46 33 28 35
75 79 88 92 93 93 93 93 94 92 90 89 88 87 87 86 85 86 89 76 52 35 43 32 27 27 22 17 20 18 19 20 24 24 30 30 31 32 33 34 31 32 36 44 36 30 37
76 79 87 91 93 92 90 92 94 94 91 89 88 88 88 85 80 79 62 60 58 51 43 31 24 23 21 22 22 20 18 23 26 29 27 33 35 30 27 28 29 36 41 39 38 33 43
74 78 87 90 91 91 90 91 93 94 93 90 90 89 90 85 79 63 64 68 72 64 42 27 25 24 23 21 26 24 21 28 29 27 31 35 30 23 27 31 30 34 41 42 41 41 45
73 76 86 90 92 91 92 92 93 93 94 91 89 90 90 79 62 69 62 62 71 61 53 33 26 25 20 23 26 21 20 28 26 30 31 33 24 28 30 32 36 40 32 41 43 50 53
72 75 84 89 91 92 94 93 93 92 93 92 91 90 89 72 63 57 64 75 82 59 70 32 25 21 23 22 24 24 28 25 34 35 30 35 26 31 32 33 37 38 41 46 52 56 63
72 76 83 88 92 93 94 93 93 92 93 92 90 90 86 73 70 72 81 84 69 84 75 37 28 29 28 26 28 32 36 33 39 40 38 41 29 30 35 36 39 38 50 53 58 58 68
76 80 83 88 92 93 93 93 92 91 92 92 91 89 70 77 58 80 87 67 77 73 40 37 36 30 34 31 34 39 45 49 55 42 61 50 45 40 37 42 42 48 64 78 69 80 77
84 84 84 88 92 93 93 92 92 90 92 92 93 81 87 80 88 84 72 72 62 52 44 34 33 33 35 32 37 45 47 56 49 54 69 72 61 49 41 47 50 54 62 85 75 89 83
91 87 84 86 92 93 92 91 91 90 92 93 84 91 76 72 84 86 64 83 65 51 37 40 37 41 46 42 40 45 56 56 56 53 62 82 63 50 48 50 48 55 70 59 80 96 92
89 89 84 86 92 92 91 90 91 89 91 87 83 78 66 80 84 65 84 65 45 37 40 45 47 51 54 53 51 50 55 53 53 57 56 66 78 59 51 49 48 49 50 73 87 88 92
89 89 87 90 92 92 90 89 91 90 90 88 92 54 55 85 70 68 78 62 39 35 41 49 54 56 58 60 58 61 61 54 52 52 54 62 69 61 55 57 65 63 74 68 67 85 93
89 88 89 92 92 92 89 89 91 92 91 88 79 62 55 69 67 89 59 45 53 48 46 47 52 54 59 60 64 62 63 56 51 56 62 67 75 87 64 54 56 57 68 69 88 82 91
89 88 89 93 94 91 90 90 91 92 92 86 80 78 68 56 81 88 56 52 52 47 50 51 54 53 58 66 68 62 62 56 52 58 66 63 78 84 59 52 55 68 68 70 79 88 89
92 89 92 95 95 91 91 93 95 92 93 90 69 83 81 80 76 56 58 59 54 50 49 48 52 54 57 64 61 66 67 62 64 59 72 63 74 71 83 62 72 80 73 71 75 95 87
92 90 93 96 94 90 95 98 98 92 94 80 79 73 79 86 79 68 64 59 59 59 50 52 59 64 62 75 72 83 73 68 63 70 68 68 80 81 75 70 75 74 78 74 84 80 88
94 92 94 98 93 92 98 98 97 92 92 78 80 82 80 87 71 57 75 60 59 56 56 60 65 68 66 75 70 82 76 80 75 70 79 81 88 89 89 81 83 88 80 83 81 81 81
95 97 98 98 93 96 98 98 97 93 88 84 94 86 71 86 72 80 82 61 58 59 60 53 58 65 72 71 70 68 68 67 66 74 80 82 93 98 86 93 95 84 80 82 74 62 64
95 96 97 96 94 97 98 98 97 93 93 92 94 78 83 88 90 75 66 59 61 62 65 59 59 64 59 63 64 65 66 68 79 79 77 94 97 98 96 97 98 60 58 54 63 61 62
94 95 96 96 94 94 96 97 93 94 94 96 97 82 90 96 97 83 67 63 63 63 68 62 67 62 69 72 84 80 82 65 67 91 92 87 97 98 99 98 82 67 58 69 70 65 69
96 95 94 95 95 95 95 95 93 93 95 96 97 90 82 92 85 66 67 70 84 83 81 78 73 78 81 97 90 91 87 84 82 69 90 95 94 94 98 99 96 70 54 59 72 92 73
97 97 96 96 95 95 96 96 94 93 94 94 96 90 86 93 78 74 80 78 76 86 84 87 83 82 83 100 99 98 94 85 93 86 82 98 98 99 99 98 90 67 60 64 92 77 70
97 97 98 98 97 96 95 96 96 93 92 93 95 95 90 96 89 80 73 77 84 84 90 78 82 90 99 98 98 99 96 91 96 80 81 77 88 96 98 99 95 65 69 84 78 76 75
97 97 98 98 98 96 95 96 96 93 91 90 94 97 95 92 77 93 86 80 69 67 83 88 81 80 94 99 100 100 99 100 94 91 77 87 76 85 76 83 68 62 64 63 69 79 84

GFSGBSN_sfc_rhum_006.txt.gz
RH
84 80 83 86 87 88 85 85 87 90 90 91 92 91 84 83 83 84 86 87 94 94 93 92 90 91 86 30 28 20 55 39 25 19 18 20 22 27 28 27 25 23 24 22 22 20 22
81 82 85 88 89 88 87 89 89 90 90 90 92 93 93 90 87 87 88 93 96 96 94 92 91 91 50 30 20 20 20 19 21 23 22 18 23 26 25 27 25 29 28 27 25 23 25
79 83 88 92 92 92 92 92 91 90 90 89 90 91 92 92 93 94 95 95 96 95 93 92 90 81 30 27 22 23 20 24 25 24 24 24 24 21 27 28 27 28 27 24 24 26 27
80 82 87 92 93 95 96 94 90 89 89 88 88 88 89 91 91 92 92 92 93 94 93 92 90 65 31 22 27 20 19 18 18 23 25 27 25 24 25 30 26 26 28 29 22 27 23
83 83 88 92 93 95 96 95 92 89 87 88 87 86 86 86 88 88 90 91 92 92 92 91 70 42 31 26 20 22 19 19 19 20 24 21 24 30 28 27 30 34 36 34 26 31 35
77 82 89 92 93 94 95 95 94 91 89 88 87 85 85 85 88 90 92 92 90 91 79 54 40 29 22 23 22 19 20 20 21 27 24 24 29 27 34 30 30 45 34 53 41 31 37
74 78 88 92 94 94 93 92 94 92 90 88 86 84 84 84 88 92 94 87 40 33 37 29 30 29 23 18 21 20 22 23 24 24 29 33 31 34 35 36 34 34 38 47 54 36 42
77 79 86 90 92 92 90 91 94 93 91 89 88 87 87 85 86 91 78 62 60 56 35 31 26 25 23 24 23 22 20 25 27 30 30 33 34 31 30 32 31 35 42 38 38 38 49
77 76 86 89 90 90 90 91 93 94 93 90 89 89 90 87 75 71 70 78 79 66 34 27 26 26 24 21 27 25 22 31 28 27 34 37 33 30 29 34 37 40 40 42 42 43 53
76 74 85 89 92 90 92 92 92 93 93 91 89 89 88 79 59 72 64 73 79 51 52 33 26 25 21 24 25 24 30 29 28 31 34 34 28 30 37 36 40 48 36 43 46 56 54
77 74 84 88 91 93 94 94 93 92 92 90 90 90 86 63 66 61 67 82 83 49 60 31 26 22 24 23 27 31 34 27 41 41 36 35 32 37 40 39 41 42 49 55 55 62 65
76 76 84 88 92 93 93 94 93 92 92 91 89 90 81 67 69 77 85 80 65 77 65 39 30 30 28 30 33 35 39 37 42 43 44 49 36 37 40 39 47 43 56 50 61 61 69
80 82 85 87 91 92 92 92 92 92 93 91 90 87 77 78 55 84 84 66 71 74 42 38 36 32 33 36 41 42 49 54 58 40 67 53 50 48 42 48 46 52 60 70 68 79 77
88 88 86 86 91 92 92 91 91 92 92 90 85 84 89 86 91 84 68 69 59 53 48 39 36 38 40 38 45 50 53 59 54 57 76 74 57 52 45 52 56 59 64 82 67 91 85
89 91 87 87 91 91 91 90 90 91 93 89 86 87 75 78 88 76 63 82 65 52 41 42 41 45 49 48 46 51 61 61 60 60 64 85 64 53 54 57 52 59 73 64 82 97 92
88 90 90 89 92 91 90 90 90 91 92 90 88 68 73 87 85 62 83 67 47 45 43 46 51 54 56 57 55 55 61 56 58 61 60 70 78 61 54 53 50 53 54 71 87 92 91
88 89 90 93 94 92 90 89 90 91 93 90 84 53 58 89 65 64 78 63 43 49 47 51 56 59 61 63 60 65 63 57 54 58 56 65 70 56 56 60 70 66 76 72 72 87 95
88 89 90 93 96 92 90 91 91 92 92 84 69 58 63 72 62 85 61 50 55 52 49 51 54 56 61 65 68 66 65 60 54 62 65 70 76 84 61 57 64 68 70 70 86 77 93
90 89 89 93 97 93 91 94 97 93 93 81 77 73 67 61 78 88 61 55 53 50 54 52 56 58 60 68 70 65 64 67 64 61 71 67 79 81 51 55 58 72 74 73 82 88 88
92 90 90 93 97 93 94 98 98 92 95 80 69 84 81 83 78 59 59 60 58 52 54 61 60 56 61 67 68 74 73 65 66 67 76 66 76 67 75 58 67 81 80 77 80 94 88
92 91 91 95 98 94 98 98 97 92 95 75 79 81 80 85 82 72 67 59 62 61 53 57 62 62 64 75 75 83 75 68 63 72 76 71 82 82 76 71 75 76 81 82 90 84 90
93 92 93 97 99 98 98 98 98 92 91 79 81 80 85 89 73 60 75 62 65 61 56 65 65 69 68 71 69 80 79 80 75 75 81 82 86 92 91 89 90 94 85 87 87 87 89
95 94 96 98 98 99 99 98 98 93 86 86 96 86 75 90 73 79 80 60 57 60 62 57 62 65 71 69 70 73 69 69 78 78 77 82 94 98 90 92 93 77 68 83 80 74 73
96 97 98 98 96 97 98 98 95 94 94 90 95 77 82 89 91 79 69 62 62 63 63 62 60 66 59 66 64 64 62 61 76 82 80 98 97 98 98 92 96 61 61 55 67 62 59
95 96 96 97 96 95 96 98 94 94 96 97 97 78 85 97 96 82 68 66 68 65 72 65 77 75 68 70 85 80 80 68 78 96 95 90 98 98 98 94 83 68 59 70 72 67 63
95 95 96 96 96 96 96 96 94 94 95 97 98 90 81 92 85 66 71 73 84 83 82 84 82 80 76 95 89 89 84 82 79 76 92 93 94 95 99 98 97 69 60 63 78 89 81
96 96 96 96 96 96 96 97 95 94 95 95 98 90 81 91 80 76 80 79 76 85 85 89 84 84 84 99 98 97 93 86 92 87 82 98 98 98 94 99 91 70 64 65 90 81 72
97 97 98 98 96 96 96 97 96 94 94 93 98 97 88 95 87 82 73 80 85 85 89 82 84 90 98 99 99 99 97 91 94 82 81 75 86 96 98 99 95 67 72 82 74 80 73
96 97 98 98 98 97 95 97 97 94 94 89 96 97 96 90 75 95 90 83 72 66 82 89 80 85 95 99 99 99 100 100 92 95 83 88 78 84 86 87 69 58 70 62 67 79 85

GFSGBSN_sfc_rhum_009.txt.gz
RH
84 81 83 86 88 88 86 85 90 91 90 90 91 90 83 81 81 82 84 86 88 90 92 92 90 91 76 28 23 17 54 37 21 20 17 18 20 22 22 20 19 18 16 16 15 15 14
82 81 86 89 90 89 86 86 90 91 91 90 90 92 92 84 84 84 87 88 91 95 94 92 90 91 44 29 16 19 20 17 17 17 18 18 18 19 22 20 20 21 19 19 18 17 18
80 82 89 92 93 93 86 91 91 90 90 89 89 90 92 92 91 90 90 92 96 95 94 90 90 81 30 27 18 20 17 19 18 19 19 17 18 18 21 22 24 22 19 18 20 20 17
80 82 88 93 93 95 87 95 91 89 89 88 88 89 91 92 92 93 94 94 94 93 92 91 90 68 33 21 22 18 16 15 16 18 20 21 22 24 22 22 21 20 22 21 19 22 19
82 83 89 93 94 95 91 95 93 89 88 87 86 86 86 88 89 91 91 91 90 90 90 92 64 40 31 24 19 19 17 17 17 20 23 18 23 26 22 23 22 26 19 24 22 26 27
76 82 90 93 94 94 94 94 94 91 89 86 84 85 84 85 87 90 91 88 88 86 77 66 35 31 21 20 20 19 18 20 22 26 23 24 24 24 26 18 21 26 23 26 26 23 29
73 78 87 92 93 92 91 91 94 92 90 87 87 84 81 84 88 93 80 63 33 36 33 29 30 27 21 17 18 19 19 21 21 24 27 29 24 27 27 27 25 25 26 30 27 29 32
77 78 85 89 91 90 90 90 94 92 91 89 88 86 87 88 86 92 78 58 48 49 31 31 26 25 22 21 23 21 20 23 27 26 24 27 30 24 27 27 24 26 29 26 29 30 34
77 76 85 88 90 90 90 91 94 93 91 89 88 88 89 87 90 77 72 71 70 56 35 28 27 26 23 21 28 27 23 29 25 30 31 33 24 27 27 32 34 34 29 32 34 33 34
78 76 84 88 91 91 91 92 93 94 92 89 87 89 88 84 63 68 64 63 75 58 48 33 25 22 22 23 26 27 30 26 30 28 30 26 26 33 34 34 34 38 32 40 40 41 36
78 77 85 88 90 92 92 93 92 93 92 89 88 88 85 63 65 61 61 76 80 54 57 29 27 19 24 25 28 28 32 31 37 36 31 28 32 36 38 34 36 40 43 44 42 44 43
79 81 85 87 91 92 91 91 92 93 93 90 87 88 79 63 74 73 82 75 65 71 56 37 28 29 29 33 36 34 38 35 34 40 41 39 33 32 34 34 39 41 43 41 47 47 52
85 86 86 87 91 92 91 90 91 93 93 90 88 87 77 72 56 82 80 63 63 68 41 37 33 31 34 39 40 42 47 52 49 39 60 43 41 40 39 39 39 43 43 50 61 66 57
90 90 88 88 91 91 91 90 90 92 93 89 88 83 85 84 88 82 67 65 60 52 44 37 34 39 39 39 43 48 47 51 52 50 60 55 46 44 44 42 44 50 50 65 58 66 61
88 90 90 90 92 91 90 90 90 92 94 92 87 77 77 83 90 73 61 81 62 49 36 37 38 42 45 44 44 47 54 52 53 54 55 65 50 45 47 46 42 47 60 52 72 90 80
86 87 89 92 94 92 90 90 90 91 93 93 78 70 72 84 80 66 82 64 48 43 41 40 46 49 50 52 49 51 51 48 48 55 50 60 61 49 45 42 44 45 46 56 68 77 70
88 87 89 93 96 93 90 91 92 92 95 91 72 63 65 86 66 62 75 61 47 48 48 46 51 56 53 55 52 55 53 49 47 49 51 51 57 48 47 53 55 53 56 61 59 71 81
89 88 89 93 97 93 91 94 99 95 94 74 69 67 71 73 59 76 60 45 55 50 48 50 53 54 56 61 62 58 59 52 53 52 56 58 66 63 48 49 52 52 54 54 65 62 76
90 89 89 92 97 93 95 98 98 94 94 76 71 70 69 64 79 90 61 55 52 51 55 51 56 58 57 63 66 61 60 64 63 56 58 56 68 61 39 46 46 56 58 63 70 77 77
91 91 90 91 98 96 98 99 99 93 94 75 67 87 79 78 72 62 60 61 58 53 56 60 56 56 60 64 68 67 64 62 65 62 79 65 66 58 53 42 51 66 67 64 68 88 69
90 91 92 94 98 98 98 99 98 95 95 72 78 81 77 84 80 67 63 57 58 56 54 56 58 56 60 71 71 75 64 60 60 70 68 66 78 71 66 62 66 65 66 67 72 69 82
92 92 93 96 99 98 99 99 98 94 93 78 78 78 82 83 69 62 73 65 61 59 56 61 64 65 60 64 59 68 66 65 63 61 69 72 78 87 86 78 77 87 69 72 71 71 74
94 94 96 97 99 98 99 99 96 94 86 80 93 81 74 89 72 75 73 60 58 60 62 57 61 62 66 62 60 60 64 70 61 64 74 80 89 94 80 85 84 79 59 67 64 63 59
95 96 98 98 97 99 98 99 94 94 92 85 91 73 84 91 86 75 65 60 62 61 64 61 57 69 58 61 59 60 58 61 65 78 72 98 95 97 97 89 85 51 50 49 58 53 50
95 96 96 97 97 96 97 96 94 94 96 92 94 72 81 100 90 79 66 67 64 67 70 64 74 71 64 67 83 82 77 70 80 91 87 82 97 100 97 88 77 58 51 54 62 52 55
95 95 95 96 97 97 97 97 95 94 96 96 98 87 77 94 87 65 68 67 78 79 79 86 78 76 72 91 91 85 76 73 65 70 84 86 89 97 99 99 95 67 48 52 58 73 66
95 96 95 95 96 97 97 98 96 94 94 94 99 91 75 91 75 69 75 76 73 78 80 83 82 84 78 99 100 96 88 77 78 84 83 98 99 95 91 96 84 64 58 56 88 89 79
97 96 97 97 96 96 96 98 96 94 93 92 98 96 84 91 82 79 70 75 78 78 88 82 84 91 99 100 100 98 98 86 83 71 74 72 88 94 96 96 95 55 59 82 77 84 76
97 97 98 98 98 96 95 97 96 94 95 90 94 96 94 88 76 93 89 76 68 63 80 87 76 82 91 98 99 100 100 98 92 92 72 85 76 84 84 81 62 56 60 70 77 84 92

GFSGBSN_sfc_rhum_012.txt.gz
RH
83 82 82 85 88 88 84 84 85 91 92 90 89 89 83 80 81 81 82 85 86 88 89 89 90 89 56 18 16 11 52 36 15 11 11 11 10 11 9 9 9 10 11 11 10 10 9
83 82 83 88 90 88 83 82 89 90 90 90 90 91 92 83 82 83 84 86 88 90 93 92 90 92 27 18 12 12 12 10 11 11 11 10 11 11 13 14 12 15 13 14 13 12 14
80 82 88 92 92 92 84 86 91 89 89 89 89 90 92 92 86 86 86 88 91 95 93 90 88 51 17 17 12 11 11 11 11 12 13 13 12 12 13 17 16 15 15 14 15 14 14
81 80 86 92 93 95 86 92 91 88 87 86 87 89 90 92 94 94 93 94 94 92 91 88 86 44 18 13 12 11 9 10 12 13 14 14 12 14 15 16 13 13 14 14 16 14 16
83 81 87 92 94 94 88 94 92 87 84 85 84 86 88 89 90 91 91 91 90 89 87 83 48 24 16 20 13 12 11 11 13 14 15 13 13 15 14 14 12 13 11 15 16 17 17
76 80 88 92 92 92 93 94 93 90 87 86 84 83 83 85 87 89 90 88 86 80 55 40 21 18 13 14 13 13 11 14 14 15 14 14 13 12 11 9 12 14 13 14 15 15 15
73 75 85 91 91 91 90 90 93 92 89 86 84 79 78 81 88 91 77 43 26 25 17 18 18 16 14 12 12 13 13 13 12 14 15 17 13 18 20 19 17 16 16 17 15 19 23
76 76 83 88 91 89 89 90 94 92 90 86 87 85 83 84 89 91 56 27 35 28 20 18 16 15 15 14 15 15 13 14 15 15 17 14 21 19 19 19 18 19 18 18 20 22 25
77 75 84 87 88 88 87 89 93 92 91 88 86 87 85 88 92 72 42 45 47 37 18 19 18 16 15 15 22 20 16 16 15 17 17 17 19 20 21 22 23 24 22 28 27 23 23
79 76 84 87 89 89 88 90 91 92 91 89 86 89 86 88 58 40 38 43 51 42 23 21 17 16 15 15 21 19 20 18 19 20 18 20 22 24 23 27 27 25 26 30 30 27 20
80 79 85 87 89 90 90 90 91 92 92 90 87 84 87 78 44 29 44 49 56 43 40 21 18 14 18 19 20 21 22 18 22 24 23 25 25 26 27 29 29 31 34 32 33 29 28
82 83 85 86 91 91 89 89 90 92 91 90 87 83 80 49 49 51 54 53 51 47 41 26 20 22 22 23 24 20 22 20 24 23 22 26 24 26 28 28 29 31 33 34 33 32 40
86 87 86 87 91 91 90 90 91 92 91 88 91 86 61 46 41 60 59 43 36 45 30 25 24 23 26 30 29 27 31 36 29 30 34 26 29 28 30 27 30 26 30 38 51 50 44
88 89 87 89 92 91 90 90 91 93 92 89 88 80 81 57 55 64 47 42 41 36 30 24 24 24 29 30 32 32 30 31 32 30 29 31 38 34 33 36 36 35 36 51 50 50 39
86 89 88 91 92 92 90 90 91 93 93 91 85 54 53 65 67 56 36 58 45 30 24 25 24 26 32 31 30 32 37 35 38 37 36 39 36 32 34 32 34 36 43 39 56 80 65
86 87 88 92 94 92 90 92 93 94 93 91 39 42 50 66 64 46 49 49 33 29 29 25 29 31 33 34 34 34 38 38 39 38 36 44 43 36 33 33 33 34 35 44 45 76 45
87 86 88 92 95 92 92 96 99 95 93 90 47 34 55 63 54 33 52 42 34 34 33 31 34 37 37 39 34 40 40 39 37 38 34 35 40 37 37 39 38 38 41 42 38 50 55
88 88 89 93 96 93 96 98 98 94 93 67 53 44 56 60 39 41 38 33 49 35 34 36 37 38 38 43 44 43 45 40 41 39 40 45 47 42 33 40 39 37 40 38 51 45 54
87 88 88 92 97 96 98 99 98 94 92 47 41 43 50 54 66 75 43 40 38 36 38 36 42 40 40 46 52 45 46 49 46 40 44 42 48 38 36 42 39 42 40 43 50 60 61
88 88 89 92 99 98 98 99 99 94 94 48 41 73 48 40 43 38 41 43 43 39 43 40 42 38 42 46 45 52 50 49 49 46 76 58 47 43 32 30 34 39 35 37 45 71 52
89 88 90 97 98 99 98 99 98 94 94 50 47 59 56 67 54 41 39 39 41 43 40 38 40 39 43 58 50 53 48 47 47 63 54 49 50 49 40 38 37 41 40 36 40 46 62
90 90 94 96 98 99 99 99 95 95 92 52 51 53 50 52 49 42 57 41 38 43 38 41 41 42 36 43 35 48 38 39 36 49 48 51 58 66 59 46 40 49 39 35 40 43 44
93 94 95 96 98 98 99 98 92 95 83 49 61 54 44 71 53 54 51 41 40 43 48 38 39 42 57 40 37 46 47 49 46 46 56 62 71 76 84 60 62 85 51 38 38 41 43
94 96 97 98 98 98 98 95 93 95 84 53 57 46 72 77 61 47 44 41 43 43 49 45 39 64 49 47 46 44 46 50 53 61 57 92 83 91 98 92 93 44 33 34 42 38 33
95 96 96 96 96 96 96 95 94 95 94 60 62 49 65 100 59 53 46 48 48 48 50 46 55 55 47 49 67 99 66 95 81 65 64 63 87 100 100 74 53 44 42 44 48 48 43
95 95 95 96 97 97 97 96 94 94 95 67 71 64 56 88 76 43 49 46 57 60 62 70 62 56 53 79 87 99 71 53 46 56 70 69 80 94 94 99 91 53 42 41 46 58 52
96 95 95 95 96 96 97 97 94 94 94 68 76 80 49 88 53 50 53 53 49 54 60 66 65 76 60 100 100 99 73 57 55 87 90 97 96 98 88 98 69 44 44 46 87 84 65
96 96 95 95 95 95 96 96 94 94 93 71 83 82 62 76 58 59 52 55 53 49 74 69 68 78 93 100 100 94 100 73 66 51 64 66 97 97 96 99 96 43 45 83 61 63 80
97 97 97 97 97 96 96 97 95 93 94 83 66 79 78 65 65 76 71 60 57 40 52 70 60 62 68 90 99 100 100 100 98 84 51 68 57 60 62 66 42 42 49 47 62 71 90

GFSGBSN_sfc_rhum_015.txt.gz
RH
78 82 83 82 86 88 84 86 88 83 86 92 91 89 85 80 80 80 81 83 86 85 86 87 89 90 57 23 12 9 40 45 18 9 8 8 8 6 6 6 5 6 6 5 5 6 6
83 82 82 85 89 88 85 86 84 89 92 91 91 90 90 89 82 82 84 87 89 87 89 90 89 91 38 17 9 8 8 8 8 8 7 6 7 7 6 6 8 8 9 9 9 9 9
82 82 84 90 92 91 91 88 90 90 89 89 90 90 91 90 84 85 87 87 88 89 92 90 87 47 25 14 8 8 8 8 8 9 8 9 7 7 8 12 10 10 12 11 11 11 11
82 81 80 90 93 94 92 87 90 87 86 86 86 89 90 92 93 89 88 89 91 93 90 88 86 36 18 10 8 8 7 8 8 10 10 10 9 11 11 11 10 11 11 13 12 11 12
82 79 80 90 93 93 94 92 89 86 83 82 84 87 89 90 91 92 92 92 91 89 87 83 50 36 14 21 10 8 8 8 10 11 11 10 10 10 13 12 12 12 12 12 14 12 12
79 74 82 89 92 92 93 91 90 87 83 78 79 82 85 86 88 88 89 88 87 81 61 29 19 18 11 11 10 9 9 10 12 13 12 12 11 12 9 10 13 11 9 9 10 12 10
78 72 78 86 91 91 88 89 90 89 86 79 75 79 81 84 86 88 75 34 25 29 18 16 12 13 10 9 9 10 10 11 11 13 14 12 12 14 15 14 11 10 11 11 10 13 15
80 73 77 85 88 87 86 88 91 90 86 81 78 80 80 83 87 90 60 25 28 20 18 13 13 13 12 11 11 11 10 13 14 13 12 11 16 15 14 14 14 14 14 14 14 15 16
81 75 78 84 86 86 85 87 90 90 87 85 83 80 85 87 91 74 32 32 28 25 16 16 14 13 13 12 16 15 12 11 11 11 10 16 16 15 16 15 17 17 18 22 21 16 15
81 75 81 84 87 88 88 88 90 89 88 87 85 81 89 91 65 32 31 31 34 36 20 16 14 14 12 13 18 14 15 14 13 12 12 16 18 18 17 20 20 21 20 23 22 21 18
79 76 82 84 87 89 88 90 90 89 87 86 85 83 89 87 33 24 32 35 41 42 38 17 15 13 12 16 16 17 15 14 14 16 18 20 19 20 22 23 22 24 25 24 23 22 20
76 78 82 84 89 91 88 89 91 90 87 86 86 84 86 52 39 36 35 40 45 43 39 21 15 18 18 18 18 16 16 15 16 15 16 19 18 21 23 22 22 23 26 24 25 23 33
75 80 82 86 90 91 90 89 91 90 86 86 89 83 71 34 32 44 47 40 28 45 20 21 20 18 19 21 23 20 22 25 22 27 27 21 23 22 23 24 24 21 24 38 45 42 41
84 83 83 87 91 91 90 90 92 91 88 83 84 81 69 43 38 52 43 32 46 25 19 16 18 18 23 21 25 23 22 24 24 21 20 24 37 25 24 28 29 26 28 49 45 43 32
84 84 84 89 92 91 91 91 94 92 91 86 86 47 43 56 55 50 31 51 36 21 18 20 18 22 25 23 23 25 28 28 28 28 29 29 31 25 27 25 25 29 34 29 46 58 56
84 82 84 90 93 91 92 97 98 93 90 86 30 31 36 56 56 48 43 45 27 22 18 17 23 24 26 24 25 26 28 30 30 27 26 30 37 26 26 26 27 28 26 41 39 64 40
84 82 85 91 94 92 96 98 98 93 90 87 36 29 52 52 50 32 46 34 26 24 23 24 24 26 25 29 25 29 30 31 28 28 24 24 28 31 26 29 28 29 32 33 27 39 49
86 85 87 92 94 94 98 98 98 93 90 79 42 35 48 49 32 34 36 27 43 26 27 28 26 26 28 30 33 33 33 34 32 30 32 33 34 40 23 28 30 29 31 29 48 39 42
86 85 87 91 95 98 98 98 98 94 93 36 29 37 43 49 59 64 35 33 28 28 27 28 33 30 30 33 42 35 38 40 37 34 38 33 40 37 28 35 31 31 29 28 35 50 49
88 86 87 94 98 98 97 98 98 94 91 52 31 60 38 36 31 31 34 32 36 31 33 30 32 30 33 36 33 41 42 42 42 38 71 50 33 35 38 27 22 29 24 22 30 55 50
88 87 90 97 98 98 97 98 96 94 91 51 33 44 41 53 42 33 30 30 32 35 30 28 32 30 35 44 38 41 37 42 39 63 42 38 43 37 31 25 23 25 27 26 26 28 46
90 90 94 96 98 98 98 98 94 95 92 38 34 40 37 41 35 34 48 32 29 32 30 31 32 30 29 43 30 39 31 28 29 37 36 37 53 56 52 31 26 34 27 25 24 28 30
91 94 94 96 98 99 99 96 93 95 89 35 41 42 36 60 40 43 39 32 30 36 39 26 29 30 46 32 33 34 36 35 33 37 43 49 60 58 70 52 57 82 46 27 27 27 34
94 97 96 95 98 98 97 94 93 95 90 39 43 36 66 66 49 37 32 30 33 32 39 32 28 47 43 34 34 36 38 38 40 45 42 73 64 85 94 89 91 36 26 27 30 30 26
94 98 97 96 95 96 96 94 93 94 93 44 42 40 59 100 41 38 35 33 38 38 39 41 45 39 37 38 59 72 68 92 73 47 47 46 72 94 98 64 46 37 37 40 44 44 30
94 95 95 96 96 96 96 95 93 93 94 50 56 54 47 86 74 33 39 39 50 53 55 58 51 45 45 68 79 98 68 40 47 52 52 57 70 82 93 98 89 49 34 34 37 57 47
94 95 95 96 96 96 95 95 93 93 92 59 60 72 40 78 43 37 47 47 36 42 48 54 56 65 50 96 99 98 62 41 46 82 91 94 95 97 86 98 63 34 37 38 69 70 52
95 95 95 94 95 96 95 95 94 93 92 68 63 66 56 62 51 46 42 47 45 40 71 56 59 66 79 100 100 89 100 61 56 37 60 74 93 97 88 98 88 36 38 76 57 56 57
96 95 95 95 95 95 94 96 94 92 92 89 47 56 56 51 59 60 57 54 51 43 40 58 48 56 56 77 94 97 100 99 88 71 33 55 52 60 57 58 34 37 46 48 49 60 73

GFSGBSN_sfc_rhum_021.txt.gz
RH
76 78 84 85 86 86 87 89 88 80 82 82 83 83 86 88 87 88 80 80 82 84 89 87 87 86 85 65 37 12 69 68 43 29 26 25 20 14 15 12 9 8 8 7 7 8 10
81 85 87 88 87 86 88 90 90 84 84 85 91 93 93 91 89 88 81 82 84 91 90 87 88 90 83 41 14 10 12 32 20 24 21 19 13 10 12 13 11 10 8 8 8 10 11
81 86 87 87 87 91 92 93 89 84 89 94 93 93 92 91 91 91 82 84 91 91 89 88 89 75 57 42 14 12 10 12 12 13 14 12 13 13 13 14 16 12 13 12 13 12 14
83 85 85 85 87 92 93 93 92 93 92 92 92 92 92 91 92 93 84 87 89 91 90 92 90 74 48 18 13 9 10 10 10 11 14 14 14 15 21 14 13 15 19 22 16 14 14
85 84 84 83 88 91 92 94 94 93 91 90 89 90 90 90 91 92 91 92 93 92 92 89 83 74 40 22 14 11 11 11 13 13 17 10 16 22 15 20 23 24 24 23 18 15 17
83 83 82 81 87 91 92 91 92 91 90 88 86 87 88 90 90 92 93 93 91 92 82 56 46 50 33 16 14 11 12 12 18 20 21 22 21 22 22 24 30 26 20 27 23 19 16
82 81 78 79 86 90 90 89 91 90 89 84 83 84 86 88 90 91 96 87 59 56 59 38 30 31 14 10 11 11 11 14 17 22 27 21 26 30 25 21 16 16 18 23 23 17 20
84 82 77 78 85 89 88 88 90 90 87 83 81 81 83 86 87 88 95 70 40 35 40 28 21 18 14 12 14 13 13 23 27 27 23 25 31 20 18 18 20 17 22 30 22 19 21
84 83 77 78 84 88 87 88 90 90 86 84 82 81 82 87 89 93 74 56 40 48 35 22 18 15 19 16 19 16 18 20 20 22 25 29 23 18 17 25 24 28 32 31 30 23 25
85 83 75 80 84 87 86 88 89 90 86 84 82 82 86 91 77 71 61 39 49 64 39 24 20 18 16 18 23 15 15 21 20 25 25 26 20 19 21 26 25 36 31 30 28 32 39
86 81 75 82 85 87 87 89 90 90 86 83 82 85 91 85 78 65 46 45 56 64 69 20 20 14 15 23 20 21 16 21 24 21 24 30 26 30 31 28 25 35 34 33 34 38 42
86 80 77 84 86 87 87 90 91 90 86 82 81 83 89 73 86 66 61 65 62 85 61 29 19 22 19 22 22 17 21 22 21 20 24 26 24 28 29 25 27 25 35 36 39 41 68
86 79 80 85 87 87 88 91 93 90 86 85 86 91 79 58 77 66 76 69 73 85 26 24 25 21 24 27 24 22 24 31 37 38 40 28 30 30 27 34 33 34 45 78 77 87 79
84 81 81 85 87 87 90 94 97 92 87 85 86 88 78 69 79 79 80 68 77 32 27 19 22 25 28 27 27 27 29 37 33 40 42 45 52 32 28 33 38 40 42 80 76 87 72
83 83 81 84 87 88 93 97 95 97 89 89 85 87 85 86 76 79 75 89 65 34 20 23 23 31 31 28 32 32 38 38 34 34 47 51 43 30 28 28 31 39 48 36 67 79 85
85 84 82 83 89 91 97 96 95 94 90 88 80 82 72 77 77 82 84 80 44 24 22 22 30 29 35 29 34 36 38 36 36 33 34 36 48 31 29 30 32 34 30 60 70 72 68
86 84 83 83 90 94 97 96 95 94 90 86 87 64 77 77 78 72 87 72 33 22 32 35 34 32 32 32 30 35 40 36 35 35 32 41 49 44 33 36 39 42 47 44 43 68 80
86 85 84 84 92 98 96 96 96 94 90 80 87 68 80 82 64 75 69 46 45 31 34 36 38 30 37 34 42 42 52 45 38 43 43 42 52 66 43 34 31 35 42 44 79 63 84
87 86 84 87 98 96 96 97 94 94 93 89 77 80 77 84 79 90 52 38 35 32 33 37 38 38 35 46 50 55 57 51 50 52 62 52 53 77 58 50 39 36 33 34 64 78 66
88 87 84 94 97 97 97 98 93 94 89 83 86 83 82 82 71 65 49 46 45 36 39 34 36 38 43 46 43 60 60 56 54 49 68 61 43 57 73 46 36 42 32 30 53 89 80
89 87 87 96 95 97 97 98 93 94 86 74 80 73 62 76 63 62 52 45 46 49 41 38 43 41 44 57 52 62 59 57 56 61 56 53 63 58 49 39 35 36 37 36 38 43 61
89 88 93 96 95 97 98 93 94 95 90 79 80 76 63 61 45 56 64 44 45 39 40 42 44 39 44 55 57 60 53 53 55 47 53 56 83 75 70 50 48 51 46 46 39 41 44
90 91 95 95 96 98 94 93 94 96 94 82 74 67 75 83 58 72 61 49 45 47 49 42 43 58 66 56 55 56 53 51 51 52 61 74 81 87 88 74 81 81 64 42 41 42 45
92 94 96 95 98 96 95 93 92 94 96 92 89 85 89 81 78 58 45 44 48 42 49 54 54 62 54 47 50 56 54 52 53 54 62 78 87 98 92 84 59 56 40 43 47 44 43
96 96 97 94 95 95 95 92 92 92 93 86 87 89 93 100 76 57 47 46 50 61 64 60 55 51 49 63 83 61 83 62 66 54 59 68 91 95 96 95 64 50 48 54 60 60 62
98 97 95 96 95 95 94 93 93 92 90 84 95 95 93 95 82 54 49 55 75 81 79 70 61 63 66 97 86 82 86 65 77 66 67 78 85 88 98 91 83 65 49 44 51 85 72
97 96 96 96 95 95 95 94 91 91 91 91 94 89 92 94 72 68 70 67 67 76 88 77 78 75 78 100 99 98 87 63 82 86 96 96 93 95 98 95 85 62 46 46 76 74 82
95 95 96 96 95 94 95 95 92 90 90 92 90 86 88 94 80 75 75 70 67 82 88 78 78 84 100 98 100 99 98 90 79 71 88 87 96 97 91 90 94 52 49 64 70 80 81
95 95 96 95 94 90 94 95 92 91 92 93 87 78 85 92 90 78 73 71 73 76 78 76 67 83 93 98 100 100 100 100 96 86 63 79 83 92 81 83 62 54 58 69 71 84 83

GFSGBSN_sfc_rhum_024.txt.gz
RH
81 80 82 84 86 87 83 89 92 94 87 81 83 83 82 83 86 92 92 86 81 82 83 88 87 85 89 70 41 21 65 75 58 36 29 25 28 20 17 15 10 10 10 8 11 11 11
84 84 86 89 88 84 84 90 93 94 85 84 84 87 92 92 92 92 91 83 83 84 90 88 86 86 85 53 21 16 27 43 27 28 26 28 22 16 17 14 10 10 9 9 9 13 12
83 86 89 90 90 88 90 93 93 94 85 91 95 95 95 94 92 92 91 84 84 90 91 88 86 82 75 47 26 23 17 17 21 24 18 17 18 19 21 16 12 11 11 12 14 14 15
84 88 88 89 88 88 91 93 94 94 95 94 93 94 94 93 92 92 92 84 87 91 90 91 92 87 54 24 23 12 14 12 12 14 18 19 17 21 17 17 14 16 19 21 17 16 17
88 89 88 88 86 88 91 93 93 94 93 92 91 92 92 92 92 92 93 91 92 91 91 90 91 86 32 28 14 10 13 14 14 15 15 10 17 22 17 22 23 24 24 26 23 16 17
88 89 88 87 83 88 91 92 91 92 92 90 89 88 90 90 91 92 92 93 92 93 90 67 55 57 35 26 14 12 13 14 19 19 18 17 25 26 25 26 27 25 26 45 23 22 23
87 88 87 84 82 87 90 90 90 90 90 89 86 85 87 89 90 90 95 86 56 58 64 29 33 37 24 18 12 13 14 14 19 24 29 26 26 29 22 22 19 18 26 26 28 22 20
89 88 86 81 81 87 88 87 89 90 89 87 84 84 85 88 89 90 91 68 40 42 31 31 34 31 24 12 18 15 15 23 29 29 28 28 31 22 19 23 28 26 29 30 25 22 21
91 88 85 79 82 87 86 86 89 90 89 86 83 81 84 89 91 89 74 62 50 51 52 23 25 22 18 18 21 17 19 26 25 28 29 32 23 20 26 29 29 39 36 38 33 30 29
91 88 84 77 83 86 85 86 89 90 88 86 83 84 89 93 74 72 56 37 47 52 43 27 23 19 18 20 25 18 19 24 26 31 27 27 21 25 31 30 33 47 35 33 33 37 34
90 88 82 78 84 86 87 88 89 90 88 85 84 87 90 86 72 71 50 65 65 56 58 22 24 16 18 24 23 22 19 25 29 26 27 34 34 34 34 34 31 37 36 38 39 42 47
89 88 80 81 84 86 87 90 91 91 88 84 83 91 92 79 86 67 73 79 51 80 56 31 23 23 23 26 25 21 23 23 26 26 27 29 30 31 34 31 31 31 40 47 46 50 67
89 87 80 83 85 86 90 92 96 92 87 87 87 92 86 66 77 79 84 55 70 80 30 27 28 25 26 30 28 25 31 38 45 39 42 34 37 32 31 38 34 33 54 75 76 83 75
89 86 83 84 86 86 92 96 95 97 90 88 91 94 84 69 87 82 71 56 76 43 33 25 27 30 30 30 31 33 36 44 37 45 43 50 55 37 30 38 41 44 49 78 73 77 68
88 86 87 85 86 90 97 96 94 97 90 90 92 89 92 87 81 82 68 85 69 43 26 26 29 36 38 32 30 36 44 42 40 40 48 53 47 36 33 33 38 44 48 42 67 81 82
86 86 87 85 87 96 97 95 94 94 88 85 83 82 70 81 83 73 84 82 56 32 33 27 34 35 39 32 37 42 47 42 41 38 41 44 51 38 32 33 34 32 35 58 71 66 67
88 88 87 85 92 98 96 94 95 94 87 92 87 57 62 85 68 71 85 79 45 33 36 36 39 34 36 36 35 46 49 45 43 41 36 48 49 46 42 40 44 43 50 50 50 72 77
89 88 87 87 98 96 95 95 94 93 91 78 87 66 77 62 48 86 73 54 43 35 34 36 41 43 37 41 53 59 57 53 52 56 43 49 56 68 50 36 34 38 47 51 75 55 86
90 88 87 97 98 95 95 97 95 92 91 86 78 87 83 60 66 86 60 42 39 39 39 39 44 44 44 49 65 63 62 61 52 53 61 49 55 76 61 53 44 41 41 54 64 78 65
90 89 89 97 96 95 96 98 94 92 88 90 88 85 80 87 76 58 64 50 49 44 42 40 41 40 46 51 58 65 66 58 53 49 72 62 55 58 71 57 45 41 38 50 60 85 76
90 89 96 97 96 96 97 96 93 93 88 80 89 77 60 68 62 70 59 48 51 51 44 41 41 44 48 61 64 71 66 63 54 60 54 56 65 63 53 47 44 43 44 45 43 52 65
90 91 98 96 96 96 97 93 96 94 86 78 82 77 73 61 49 56 70 54 49 47 45 48 49 50 51 62 57 68 60 63 59 54 59 67 79 71 58 62 61 52 47 53 52 46 47
91 94 97 97 97 98 93 94 95 97 86 69 73 76 65 85 57 64 66 50 51 49 50 49 55 65 69 62 65 65 62 59 56 55 74 76 80 77 69 80 73 75 59 50 47 50 50
93 96 96 97 98 94 94 94 94 94 95 88 86 86 83 81 74 58 55 48 53 52 60 61 58 62 58 57 50 46 51 58 60 69 63 81 94 94 81 75 48 47 48 43 50 55 66
96 97 97 99 96 95 94 94 94 94 94 94 91 85 82 96 86 61 52 67 68 71 72 72 71 58 58 62 71 57 78 69 71 77 84 72 90 99 76 89 54 52 52 54 53 61 69
97 97 96 97 96 96 95 94 93 92 93 91 96 96 78 91 81 70 66 64 79 84 82 76 66 71 74 94 80 81 74 52 79 73 73 81 81 80 99 69 61 51 56 49 50 82 74
98 97 96 97 96 96 95 94 92 91 92 90 93 92 84 90 80 78 71 70 76 83 88 83 77 77 74 98 98 89 88 65 86 85 91 97 96 96 100 94 81 58 54 50 76 66 82
96 96 97 97 96 96 95 94 92 94 94 82 90 91 80 94 89 85 80 74 79 81 87 78 75 83 99 88 92 98 98 86 85 76 84 88 95 98 98 98 81 58 58 64 67 84 83
95 96 96 96 94 95 96 95 93 93 93 92 77 89 90 88 87 81 82 83 81 71 83 81 63 84 88 97 98 99 98 100 90 88 70 67 71 84 78 80 60 60 60 64 78 85 84

GFSGBSN_sfc_rhum_027.txt.gz
RH
84 83 83 84 85 88 86 86 90 94 95 95 82 82 82 82 82 84 89 93 88 79 80 81 88 84 92 72 40 22 79 78 45 30 26 27 28 25 21 18 14 10 10 12 12 10 10
87 86 85 86 87 87 85 86 92 94 94 94 83 83 84 87 88 92 94 92 81 81 82 88 86 83 88 40 22 24 41 37 34 34 31 27 25 25 22 16 11 10 11 11 12 12 14
87 86 86 88 91 90 88 89 92 93 94 92 90 92 95 95 94 94 92 91 81 83 87 89 84 83 77 32 29 31 27 30 27 26 24 28 27 22 17 16 13 11 12 13 14 16 15
86 87 87 90 92 91 89 90 92 93 94 95 95 95 96 95 94 93 92 92 84 85 91 90 91 92 50 26 33 24 18 13 17 24 20 16 18 18 19 17 19 19 20 21 18 16 18
87 87 89 90 92 90 88 90 93 92 93 94 93 93 94 94 93 92 93 90 89 91 90 92 95 91 29 26 19 14 13 14 17 17 20 12 19 23 20 22 24 26 26 29 24 18 19
87 88 90 90 90 88 87 91 93 92 92 92 92 91 91 92 92 92 93 93 93 94 90 74 66 58 32 22 18 14 15 16 18 23 20 21 26 26 26 23 24 25 30 48 24 22 21
86 88 89 90 89 85 86 91 92 90 90 91 90 88 89 91 91 92 97 96 65 65 70 33 33 34 33 19 13 14 15 18 20 22 28 29 28 31 27 29 24 24 31 30 30 24 22
87 89 90 89 87 83 86 90 89 89 90 89 87 86 87 90 91 92 93 60 39 49 40 43 42 38 31 26 18 15 17 20 26 30 30 28 34 29 25 34 28 29 30 33 31 27 24
89 90 90 89 85 82 88 90 88 89 90 87 84 84 88 91 92 93 69 59 54 50 55 32 26 25 24 21 22 19 21 27 27 29 31 32 28 26 27 33 35 42 39 40 34 31 29
90 91 91 88 83 84 88 88 88 89 89 86 84 86 90 93 76 69 51 42 56 51 45 28 24 20 19 22 25 20 21 23 28 28 29 28 32 30 33 31 39 47 39 35 34 34 35
91 91 90 87 82 85 88 88 88 90 88 85 86 89 92 86 72 78 49 71 68 51 62 23 24 16 21 24 22 20 20 25 30 28 29 38 38 36 34 36 34 38 40 39 40 46 50
91 91 89 86 83 87 88 87 89 90 88 85 86 91 93 87 88 67 75 74 49 74 50 30 26 24 24 28 27 23 23 28 29 31 31 35 35 33 37 35 35 34 43 50 58 54 68
91 90 88 84 85 88 87 89 93 93 87 86 89 92 86 69 79 81 84 50 63 84 34 32 32 26 29 34 30 28 40 42 41 40 47 39 39 36 36 42 39 40 54 75 78 82 77
90 89 88 84 87 88 88 93 95 96 87 90 90 94 87 69 91 84 61 47 73 51 35 30 30 31 33 33 37 38 43 45 39 43 48 53 54 40 33 40 42 48 50 78 66 76 69
89 88 86 87 88 88 92 96 93 96 90 95 92 91 93 90 88 76 58 73 68 56 29 31 33 38 42 35 38 40 48 45 43 44 49 54 49 38 35 36 40 49 52 47 74 84 84
87 88 86 88 90 91 96 95 94 95 91 92 86 85 74 85 82 73 77 80 64 42 34 30 39 38 41 36 41 47 51 46 42 41 44 47 54 41 34 38 38 35 40 61 72 65 67
88 86 88 88 92 97 96 94 95 92 91 90 80 48 55 89 60 63 72 77 63 34 39 33 37 42 38 39 43 52 53 50 52 47 40 50 47 45 46 43 48 45 50 55 57 75 76
88 88 89 90 97 97 96 93 95 92 93 81 81 61 77 57 50 88 76 63 52 38 36 40 44 43 43 49 61 59 58 56 57 57 43 54 58 71 52 40 42 44 51 50 67 54 87
88 89 88 96 97 96 94 94 96 93 84 86 78 95 86 50 61 88 59 52 44 40 40 43 47 49 50 61 64 68 66 63 53 56 54 49 58 74 58 51 43 48 47 63 66 76 68
89 90 95 97 95 96 95 96 94 93 93 87 85 88 82 89 71 52 60 54 52 45 44 44 44 47 50 61 66 70 69 64 55 50 71 58 62 57 64 55 52 44 42 59 59 82 73
89 92 98 96 97 95 96 96 93 93 92 81 90 76 67 77 77 78 60 54 52 52 46 43 45 48 52 65 71 76 71 66 52 62 59 55 62 65 58 57 48 44 43 50 52 56 61
90 98 96 95 96 96 97 93 95 93 91 80 90 82 78 62 55 62 76 60 50 51 48 51 48 60 57 57 56 70 64 63 51 56 69 71 77 64 64 68 65 55 45 47 49 51 58
95 98 96 95 96 98 92 96 97 92 79 80 86 88 68 87 68 68 73 58 52 52 62 59 56 64 67 67 68 69 68 65 58 59 79 74 79 66 56 80 60 57 49 53 50 50 51
96 97 95 98 97 92 95 96 97 90 90 89 94 83 83 88 64 54 59 55 57 55 61 65 58 63 59 58 51 48 54 67 73 80 67 82 93 87 74 74 50 42 51 49 48 56 66
98 96 97 98 95 94 95 95 94 93 94 88 96 82 82 97 85 66 66 74 71 76 77 77 74 63 62 53 64 54 72 63 71 83 83 76 91 97 80 78 49 41 56 57 56 56 70
96 97 98 96 96 95 95 94 94 94 95 91 97 92 79 92 82 68 73 68 78 84 79 79 74 75 68 88 77 66 55 48 76 80 81 78 77 76 97 65 54 44 59 53 52 74 75
98 97 96 96 97 96 95 95 95 95 93 83 95 93 80 92 86 81 74 72 77 82 86 82 77 79 70 96 91 85 81 61 80 82 96 97 96 90 100 85 72 52 56 54 63 56 84
96 96 96 96 96 96 96 95 94 95 94 83 94 94 79 96 92 87 83 78 81 81 84 77 77 82 92 83 87 95 96 88 86 76 90 94 97 98 98 97 73 55 60 65 64 80 83
96 96 96 95 96 97 98 97 94 95 95 83 87 95 93 89 89 85 83 84 85 65 85 83 69 79 84 93 98 99 100 99 90 84 74 76 70 83 77 77 58 60 68 66 75 83 87

GFSGBSN_sfc_rhum_030.txt.gz
RH
87 85 85 86 86 87 84 86 90 91 94 95 95 94 82 82 82 82 82 85 94 81 78 79 81 82 93 81 44 52 82 78 42 27 25 27 30 28 27 22 18 16 11 13 11 10 14
89 89 87 88 87 87 83 87 90 91 94 94 95 91 83 84 84 84 85 89 92 80 80 80 81 82 94 48 23 45 53 43 35 29 28 26 28 26 26 18 13 12 12 13 14 12 14
89 91 89 88 88 88 88 90 91 90 92 94 95 92 90 92 86 88 94 94 90 81 81 82 81 82 88 41 27 35 36 32 35 29 30 29 27 25 26 21 14 15 12 13 13 16 18
88 90 90 89 89 91 92 92 90 90 92 94 94 96 96 96 96 95 94 93 84 83 82 90 85 92 65 28 36 30 28 20 27 28 27 23 28 26 22 19 20 18 21 17 16 18 21
88 90 90 89 90 92 92 91 89 90 92 93 94 95 94 95 95 94 93 93 86 84 89 92 98 94 41 27 24 18 17 16 18 26 27 15 20 23 21 23 24 26 25 29 24 20 20
89 89 89 88 91 92 91 90 88 91 93 93 93 93 92 93 94 94 94 93 92 92 90 82 77 67 33 21 24 15 15 17 22 26 22 23 28 25 26 20 25 23 27 49 28 34 23
89 88 88 88 90 90 90 87 88 93 92 91 92 92 90 92 93 93 96 96 69 71 85 42 37 34 34 27 19 16 16 20 24 24 30 29 29 29 25 25 22 24 28 28 32 27 26
89 88 88 88 90 89 88 85 89 93 90 90 91 90 90 92 92 94 96 70 42 45 57 50 45 42 36 31 27 17 18 24 27 30 33 30 33 28 34 33 31 30 32 36 34 30 31
90 89 88 88 89 89 87 84 90 91 90 91 90 87 90 92 93 97 90 60 55 48 61 39 42 32 22 26 26 19 22 27 28 28 32 32 32 30 33 37 36 44 38 42 36 34 33
90 89 89 89 90 89 86 85 91 90 90 91 89 89 92 94 85 75 57 40 64 52 45 31 28 23 21 24 28 21 23 24 28 31 29 35 36 32 33 34 41 43 42 38 37 35 43
90 90 90 90 90 89 86 87 90 89 90 91 89 90 93 82 78 70 44 76 72 45 57 27 26 17 23 23 22 22 26 26 28 33 32 42 40 36 35 39 36 42 40 41 44 48 52
91 90 90 91 90 88 85 88 90 90 91 91 90 92 93 89 94 74 77 69 48 72 55 33 25 24 28 29 28 26 31 30 29 37 38 41 38 37 39 39 36 38 47 52 60 57 69
94 90 90 90 89 86 85 89 90 91 92 92 90 92 90 72 79 87 78 48 58 78 37 35 32 28 31 36 32 36 41 44 38 45 51 42 42 39 39 43 42 46 55 76 79 81 77
94 90 90 89 88 85 87 90 92 95 96 91 93 93 90 77 88 85 54 44 56 49 42 33 32 33 34 37 42 42 45 46 42 44 53 54 53 42 35 43 46 51 52 78 64 83 74
92 90 90 88 86 86 89 91 95 94 97 92 94 97 92 92 82 73 51 65 55 58 34 34 33 38 45 39 40 44 51 47 46 49 47 55 51 42 38 39 42 52 56 51 76 85 85
89 92 88 87 86 88 92 94 94 94 96 94 93 90 83 90 84 70 64 57 61 56 38 33 37 42 46 42 46 50 53 52 46 46 48 49 55 44 38 40 40 41 45 60 72 64 64
95 89 87 86 87 91 94 96 93 95 95 90 72 63 62 87 57 58 60 59 67 48 42 34 40 46 43 42 49 56 53 55 57 52 46 51 48 48 47 47 50 49 53 59 62 74 73
96 87 86 86 89 93 96 95 93 96 94 94 68 63 84 55 54 87 73 69 61 40 41 45 43 42 44 53 60 59 56 57 62 61 44 57 58 69 54 45 50 48 50 49 64 51 88
93 87 86 88 93 96 97 94 94 96 92 86 91 97 90 49 70 89 61 58 49 42 46 46 49 50 55 64 65 69 68 63 55 57 50 48 60 74 53 44 45 50 56 62 64 75 71
89 88 89 93 95 94 95 94 96 98 93 87 86 96 86 84 73 53 50 59 53 50 48 45 50 51 58 68 69 73 71 65 56 53 71 58 62 58 60 50 54 49 56 60 55 79 70
88 90 93 95 94 94 94 95 96 95 93 92 86 81 78 87 86 58 54 53 54 52 48 45 49 51 56 70 74 78 73 68 52 65 65 52 60 65 67 65 54 45 45 61 54 55 56
90 95 96 95 94 95 96 98 96 95 93 88 91 77 75 72 78 66 73 59 51 53 53 53 50 66 58 61 55 71 66 63 47 63 72 69 74 59 76 72 67 58 49 50 54 54 61
95 96 95 95 96 96 98 95 96 94 86 79 95 88 67 87 79 74 78 64 54 56 67 61 55 61 66 68 71 76 72 71 60 63 78 71 77 69 67 78 59 57 53 51 54 58 53
97 95 95 96 97 97 94 97 97 92 83 86 93 85 85 85 72 70 63 60 59 56 61 71 61 63 65 62 56 51 58 74 78 85 71 78 79 80 73 72 55 41 52 53 52 52 54
96 95 96 98 95 94 96 97 97 91 96 93 97 77 85 96 74 65 70 79 76 79 80 81 79 73 60 50 70 63 72 67 74 87 79 72 83 95 75 76 46 33 50 61 58 53 64
95 96 98 95 94 96 96 96 95 89 93 96 98 88 84 91 81 66 76 75 81 84 82 84 82 72 64 88 76 71 69 59 69 84 84 75 74 74 95 64 53 42 50 56 52 72 62
97 98 95 95 95 96 96 97 96 92 92 88 98 92 83 94 90 80 75 75 77 82 88 83 78 78 68 93 89 79 66 59 70 76 98 98 98 86 100 81 67 49 56 56 63 59 82
96 96 97 96 96 97 97 97 96 94 90 86 94 95 82 98 93 87 85 80 82 81 85 80 77 82 90 81 86 90 91 87 84 73 95 92 97 98 96 96 73 54 60 64 64 74 81
95 96 97 98 99 99 99 98 96 93 93 84 87 96 94 91 92 87 85 85 86 65 85 86 71 80 82 90 96 98 99 97 89 80 81 77 73 85 76 77 57 56 70 68 68 68 83

GFSGBSN_sfc_rhum_033.txt.gz
RH
88 87 87 87 88 88 85 86 89 91 93 93 94 95 92 82 81 84 81 84 85 82 80 78 78 80 86 65 42 43 82 78 43 23 22 23 24 23 27 24 16 15 10 11 10 13 20
90 90 89 88 89 89 86 86 88 92 93 93 94 94 92 83 83 82 82 81 82 81 80 77 78 79 83 41 20 47 48 38 29 23 24 23 21 22 22 16 15 14 10 11 10 12 12
90 91 90 90 90 90 88 89 90 92 92 91 93 94 95 92 88 85 83 88 94 88 80 80 79 78 85 38 22 39 34 32 30 24 26 24 23 22 22 18 12 11 12 12 13 12 15
91 91 91 91 91 91 90 90 91 91 90 91 93 94 96 96 96 96 95 94 93 81 79 80 82 83 62 30 32 31 31 24 28 26 22 23 25 23 20 15 17 14 17 14 12 12 15
92 91 91 92 92 91 91 91 92 91 89 91 94 94 95 95 95 95 94 94 88 82 81 90 91 88 41 30 22 17 17 14 26 28 28 20 24 24 17 19 19 22 16 19 15 14 14
83 93 90 91 91 91 90 92 92 91 89 91 93 93 93 93 94 94 93 92 90 87 86 78 78 70 32 20 23 15 14 16 24 24 23 21 23 22 21 16 20 21 20 19 17 16 20
78 86 90 90 90 90 90 90 91 90 89 92 92 92 92 92 93 94 90 92 76 72 84 47 38 38 28 26 22 14 14 20 22 24 26 26 21 21 20 21 16 18 20 20 20 20 37
82 82 92 90 89 89 89 89 90 89 90 92 90 91 92 92 94 95 92 80 45 42 51 56 48 43 37 31 25 15 17 23 26 27 24 25 29 23 30 23 26 25 26 27 26 26 32
80 84 91 89 88 89 89 88 90 88 90 91 90 91 91 93 95 94 95 74 53 49 59 40 46 36 24 27 24 20 20 24 24 25 26 31 24 27 31 30 30 33 31 31 27 26 29
83 86 92 89 88 89 89 88 89 88 90 90 90 91 93 95 89 86 74 51 52 59 46 34 29 24 23 23 28 17 20 22 26 28 30 32 30 28 29 32 30 36 30 30 28 25 27
83 82 85 90 89 90 90 90 88 88 90 90 91 91 94 84 73 63 44 68 63 52 58 28 24 18 22 22 22 22 26 23 28 30 28 34 34 31 33 32 30 36 36 34 34 36 36
86 82 87 92 90 91 91 90 87 88 90 90 92 92 94 92 92 75 72 63 56 65 59 31 23 23 26 28 25 23 30 27 28 36 35 35 29 30 29 35 32 40 39 43 46 43 46
81 85 84 92 90 91 90 88 86 89 90 91 93 93 89 74 72 86 78 55 58 70 38 33 30 27 30 33 33 34 38 41 33 43 45 37 36 32 34 34 34 37 40 52 59 64 57
82 87 86 92 91 91 89 87 87 91 92 94 94 94 93 82 82 85 58 48 56 45 43 31 30 31 34 33 38 38 39 40 38 38 42 42 41 32 31 32 36 40 41 63 55 64 56
80 83 88 91 93 89 88 86 89 92 93 94 94 96 92 90 86 79 53 64 54 47 37 33 31 35 39 36 38 39 42 39 38 37 40 48 41 31 33 32 32 41 41 42 62 70 63
79 83 88 90 93 88 86 87 92 92 92 94 93 92 83 90 89 66 59 57 45 49 36 31 35 40 44 38 42 42 42 43 39 40 39 45 47 36 32 32 36 34 39 47 53 60 47
78 84 88 92 94 87 84 89 93 92 93 90 85 80 74 90 66 57 61 53 56 56 41 32 38 43 42 42 44 45 44 46 46 41 39 41 44 43 38 37 39 41 44 51 47 53 46
81 89 93 89 90 86 86 92 93 92 94 95 78 68 91 67 59 74 63 51 62 43 42 43 39 42 43 50 52 50 50 46 53 49 41 43 53 58 42 35 38 36 40 43 51 44 65
88 92 92 93 87 86 92 94 92 92 91 92 74 96 93 58 73 84 58 54 48 42 46 44 49 48 53 60 59 60 60 58 53 44 50 47 56 60 44 35 36 39 44 45 52 60 59
90 92 88 91 86 89 92 93 94 94 88 84 90 93 88 72 68 55 58 52 50 49 49 45 50 52 59 62 64 68 63 58 54 50 72 57 53 53 53 40 42 44 51 45 45 60 51
90 93 92 90 89 92 93 93 94 95 91 89 82 84 80 81 70 55 47 53 50 52 48 45 49 50 57 67 66 70 62 53 48 67 59 49 52 50 53 53 46 36 42 50 41 44 50
92 92 91 92 92 93 94 94 94 95 93 93 85 75 72 74 72 56 69 58 50 52 53 50 52 58 54 60 53 68 61 54 42 55 59 58 64 52 60 59 56 50 41 42 49 46 45
93 88 92 92 92 93 94 94 94 94 84 87 96 77 64 84 77 63 66 62 51 58 65 58 53 58 61 60 62 67 66 66 56 59 67 60 68 63 63 60 50 62 48 42 43 43 42
92 93 93 93 93 93 95 96 96 89 83 84 90 77 77 81 80 58 62 59 57 56 61 66 57 60 62 61 56 52 58 70 67 70 60 67 64 68 72 70 56 36 43 40 43 40 41
94 94 93 93 95 96 98 96 96 90 92 92 95 74 77 98 70 66 70 76 74 77 78 75 76 67 61 53 71 66 73 75 74 72 64 59 70 81 77 57 40 26 37 48 54 36 41
95 95 95 96 98 96 97 97 95 92 94 94 97 88 77 86 77 62 75 72 77 82 79 86 73 64 61 78 78 80 75 60 57 71 73 64 66 73 79 64 59 39 33 46 42 58 43
94 95 98 96 96 96 96 97 93 88 93 91 98 88 80 94 88 74 74 74 74 77 84 79 71 74 64 85 90 80 66 54 56 68 94 95 94 86 82 78 60 42 38 46 56 53 60
98 96 96 96 96 97 96 95 92 88 92 90 98 95 80 96 93 86 81 77 77 76 83 80 75 80 86 90 93 81 89 74 66 60 84 78 90 94 90 83 71 46 50 62 56 55 58
97 97 98 98 99 98 98 96 90 85 90 89 96 97 90 89 91 86 81 82 83 64 80 83 70 76 76 86 90 93 99 98 82 75 72 71 68 74 66 67 52 47 58 54 57 57 57

GFSGBSN_sfc_rhum_036.txt.gz
RH
93 89 89 90 90 90 89 89 90 91 92 93 93 92 92 90 82 82 81 87 82 84 86 78 77 77 66 49 24 30 74 72 28 16 16 16 15 13 12 12 13 13 10 9 9 14 18
85 93 90 90 90 90 89 88 90 90 91 93 92 92 93 92 84 82 82 87 85 87 85 76 77 82 62 37 12 25 29 25 16 14 15 15 13 12 17 15 13 11 9 8 9 11 18
83 88 92 91 91 90 90 90 91 90 91 92 91 91 93 94 94 83 83 88 88 93 81 76 80 64 62 30 14 22 23 18 17 15 15 14 14 15 17 17 8 10 10 11 13 15 16
84 84 92 93 92 91 92 91 91 90 91 91 90 91 94 94 95 95 94 94 94 82 78 81 84 72 41 17 15 19 16 19 19 16 15 16 16 17 18 13 10 9 10 14 13 14 13
82 83 84 94 93 92 92 92 91 90 90 90 90 91 93 93 94 94 94 93 88 81 80 88 78 72 30 26 17 12 14 14 18 19 19 18 18 18 16 14 12 12 10 11 12 10 13
81 80 80 90 93 93 92 92 91 91 91 90 89 91 92 92 92 94 93 91 88 84 77 72 58 65 30 15 15 14 10 11 18 20 21 21 17 15 13 11 13 13 10 10 10 11 10
80 81 81 83 94 93 91 91 91 91 90 89 88 91 90 91 92 94 84 59 54 53 59 32 24 29 18 15 15 10 9 14 18 16 17 19 17 14 12 12 11 10 14 12 12 15 13
80 81 83 80 85 92 90 89 92 92 90 88 89 90 90 91 94 93 68 44 29 40 33 33 30 30 22 20 18 11 10 13 16 15 19 19 17 18 18 15 15 14 15 18 18 16 17
80 81 84 81 84 92 90 89 91 91 90 88 90 89 90 93 95 89 60 40 36 36 44 29 27 23 17 20 15 12 12 14 15 16 18 17 20 21 17 17 18 20 18 21 18 19 19
80 82 83 85 82 87 90 90 90 91 89 87 90 89 93 95 79 56 57 34 35 44 35 22 22 18 16 18 16 12 14 14 18 17 20 21 21 21 19 20 21 22 21 19 19 19 18
80 82 84 87 84 90 91 91 90 90 88 88 90 91 95 85 52 46 31 28 42 50 36 16 18 13 16 17 14 16 18 15 15 20 22 25 22 21 20 23 22 26 22 20 20 20 22
80 82 83 84 84 89 93 91 91 90 89 89 90 92 94 81 63 47 49 53 52 51 42 22 17 18 19 17 16 17 18 17 20 22 21 23 21 21 22 25 22 27 27 27 26 24 30
80 83 84 85 87 86 94 91 91 89 88 90 91 93 86 55 42 65 58 54 46 46 23 23 20 18 17 20 20 19 22 22 20 29 29 24 25 23 24 26 27 25 24 29 37 40 34
79 82 83 86 86 86 94 91 90 88 89 91 93 94 86 53 45 67 64 48 44 21 24 20 18 17 20 20 23 26 26 24 26 23 22 23 32 23 24 25 22 25 23 31 28 35 30
79 82 84 87 87 87 92 91 89 88 92 93 95 88 76 63 67 67 50 56 35 28 21 22 20 21 25 23 20 25 27 22 24 26 21 27 28 24 26 25 24 30 28 30 42 57 50
75 81 82 87 87 89 91 92 87 90 92 94 68 76 56 58 64 61 54 48 28 30 24 20 23 20 26 23 22 24 28 28 29 28 29 30 33 26 27 24 27 28 26 35 36 47 31
78 79 81 86 89 91 92 92 87 93 93 91 62 55 56 65 61 61 54 37 27 35 28 22 19 26 23 28 22 22 26 31 30 29 27 26 27 34 30 27 25 33 32 31 27 36 29
78 81 81 86 88 90 94 92 89 92 94 86 58 55 82 64 67 58 41 30 46 29 36 25 21 22 26 28 31 24 27 25 33 27 29 32 32 43 31 28 28 27 28 27 32 32 45
77 79 79 86 87 89 91 92 93 94 89 61 52 63 89 63 66 64 39 32 38 28 30 30 28 26 30 32 36 35 36 43 41 32 34 32 37 44 38 31 30 30 29 26 32 39 38
77 79 80 85 85 94 89 88 92 92 88 50 46 77 86 62 38 39 38 34 36 35 32 32 36 36 38 40 42 46 44 43 40 36 69 44 36 34 36 28 27 35 33 28 27 39 27
78 80 86 87 90 94 92 92 92 92 89 68 45 52 49 67 49 39 33 30 33 38 32 31 36 31 34 47 43 47 43 39 40 63 44 36 38 37 33 33 31 27 27 30 27 24 36
80 82 89 88 93 88 92 91 94 93 91 77 51 50 50 45 40 39 47 36 31 37 34 33 34 36 36 40 32 44 39 36 36 42 40 40 44 43 45 40 37 36 28 25 27 24 26
82 86 87 94 89 86 92 90 93 93 92 55 68 50 37 68 42 41 37 36 29 41 48 39 34 39 45 44 44 40 42 37 33 41 47 44 52 47 40 41 39 73 38 27 24 28 29
87 86 90 90 88 92 93 92 92 94 93 44 54 42 53 64 45 31 35 38 36 38 44 46 38 42 52 42 38 39 41 41 40 46 39 51 48 60 65 68 81 19 23 25 27 24 20
90 93 91 89 94 92 90 91 93 92 92 67 62 47 55 99 44 36 39 47 49 50 55 51 55 47 42 41 51 55 65 82 62 49 44 37 48 76 92 42 27 16 22 25 30 20 20
93 92 91 95 94 92 92 92 93 94 88 73 78 63 49 81 65 29 44 47 52 55 59 65 55 47 42 55 68 76 66 47 53 55 49 43 47 58 72 89 90 30 31 35 33 35 25
91 96 95 94 94 94 94 94 93 93 91 76 78 78 47 74 48 49 43 53 48 50 57 59 55 59 49 77 97 80 61 40 46 64 88 84 86 90 75 91 48 26 25 36 43 35 33
95 94 95 96 97 97 97 96 96 90 93 74 86 76 56 77 69 65 55 53 53 48 64 59 54 61 68 92 92 70 91 52 45 38 55 61 80 93 80 98 80 31 39 48 40 37 36
96 97 96 96 96 96 97 96 93 87 92 86 79 78 62 63 72 66 68 65 63 50 51 55 51 52 48 69 84 88 97 96 67 61 49 55 48 52 47 45 34 34 38 36 41 43 41

GFSGBSN_sfc_rhum_039.txt.gz
RH
80 84 91 91 91 90 89 90 90 90 90 90 91 92 89 87 87 88 82 85 81 82 83 83 78 79 61 38 18 27 75 76 26 18 13 11 10 10 10 8 8 10 10 8 9 11 16
82 83 84 92 91 91 89 89 91 91 91 90 91 91 90 90 90 92 81 85 81 85 87 80 77 81 56 33 9 14 18 21 11 14 11 11 10 9 12 12 11 10 9 9 12 15 15
76 83 86 87 94 92 90 91 91 91 91 90 90 90 90 91 93 94 92 84 83 88 83 77 77 55 45 28 10 13 17 13 12 12 12 10 10 13 13 14 9 8 10 10 10 12 16
81 79 86 85 93 93 92 92 92 91 91 90 90 89 90 92 93 94 93 93 91 84 76 77 80 50 35 13 11 12 14 14 13 13 12 13 13 14 16 13 9 10 11 16 12 13 14
79 82 82 83 85 94 93 92 92 91 91 90 90 89 89 92 92 92 92 91 88 80 77 79 68 52 29 25 13 10 10 12 13 14 14 14 16 17 15 17 12 10 12 14 14 11 12
75 78 82 82 82 83 94 93 92 92 91 90 89 88 88 91 91 92 92 89 86 84 70 49 42 51 31 14 10 11 9 11 15 17 19 18 19 20 16 15 18 14 13 10 10 9 10
72 71 78 81 83 84 90 93 92 92 91 90 88 87 90 90 90 93 82 52 47 52 42 26 22 20 14 12 11 10 8 10 15 16 18 19 19 18 14 13 11 10 9 8 8 7 10
74 75 76 79 81 82 84 94 93 92 91 90 88 87 90 89 92 93 72 36 25 37 37 23 19 20 17 14 15 10 8 13 18 18 13 17 19 13 10 10 10 9 13 13 11 9 11
74 75 76 78 80 82 82 89 93 92 91 89 87 88 88 91 94 82 49 35 26 33 40 20 15 17 16 13 14 10 10 10 15 17 14 24 18 15 12 11 12 12 15 20 14 13 10
75 76 80 80 80 81 84 86 93 92 91 89 87 89 91 94 85 42 45 31 28 38 41 22 20 15 14 14 15 8 9 11 16 18 17 29 21 15 13 12 13 18 15 14 14 16 17
76 77 79 81 82 82 84 86 93 92 91 89 88 90 95 92 57 40 30 22 31 52 50 14 13 10 10 14 11 12 10 11 15 14 15 18 16 15 14 16 16 24 17 15 13 13 17
80 76 79 80 82 86 86 86 94 93 91 89 90 91 95 80 63 41 34 31 45 57 54 17 14 16 16 14 12 10 12 11 13 14 13 31 16 15 17 18 16 19 19 18 16 16 28
80 78 78 82 83 84 84 86 93 92 91 89 91 93 86 48 42 39 44 56 54 51 16 16 17 16 15 16 14 13 14 16 15 21 23 18 17 18 17 19 19 17 20 33 36 31 33
76 80 79 82 84 84 86 85 95 93 90 89 92 94 87 49 41 57 54 71 55 24 21 13 14 15 17 14 15 14 14 14 12 15 16 20 29 18 18 18 20 20 18 31 32 30 24
74 85 80 82 83 86 86 86 95 95 90 91 93 77 70 63 58 63 60 71 42 21 14 17 15 18 17 14 15 16 18 14 13 14 24 28 24 18 19 18 16 21 22 21 28 49 42
74 86 80 82 83 85 86 88 95 94 91 93 60 74 58 56 64 70 75 56 31 16 13 15 20 17 20 18 18 17 17 13 16 19 19 18 28 19 21 20 21 22 19 28 26 39 32
77 84 80 82 83 86 89 89 91 95 93 89 57 59 44 54 59 74 71 44 28 17 20 18 18 18 16 18 16 16 16 19 18 21 20 16 20 29 24 23 17 25 25 23 22 28 35
81 85 82 84 83 86 88 90 89 95 92 84 66 59 58 61 51 60 53 34 31 21 24 19 19 16 19 18 20 17 16 16 18 19 22 20 22 29 23 21 20 20 21 22 38 28 32
73 86 84 84 82 87 89 91 93 96 89 56 68 68 84 51 59 72 40 32 23 22 27 22 20 17 17 21 26 20 18 36 30 26 22 25 24 32 29 26 23 24 20 19 21 30 33
78 84 80 81 81 88 89 88 93 95 88 60 58 86 98 70 36 48 45 34 29 25 22 20 18 17 21 21 20 25 24 35 35 27 61 42 22 25 34 23 21 31 24 21 23 40 32
83 78 80 81 82 87 88 89 91 96 86 82 64 44 55 71 52 61 37 30 29 31 26 24 24 23 24 29 26 30 27 36 36 57 33 31 34 26 22 23 24 22 20 20 22 23 33
80 80 79 79 82 86 88 92 94 93 87 94 77 36 40 42 45 56 47 34 26 24 28 29 22 22 22 27 29 31 30 31 32 36 34 30 37 35 40 27 28 28 22 19 17 19 18
80 78 79 81 83 86 89 92 94 88 94 85 69 35 38 56 51 45 40 29 25 29 39 25 21 21 29 30 32 30 27 26 26 35 38 38 40 45 40 32 30 62 33 22 18 17 19
77 79 80 83 87 86 89 94 91 90 93 55 54 45 47 64 48 36 29 26 26 31 36 33 25 29 41 32 31 31 30 30 32 36 32 44 45 53 54 68 81 18 15 15 21 17 14
77 79 82 87 87 89 90 91 90 94 94 92 89 46 41 99 39 30 29 30 28 36 36 40 43 36 34 33 45 54 60 67 42 33 30 30 42 62 88 41 27 18 13 20 21 18 16
80 82 86 86 87 91 92 90 94 93 92 94 92 59 38 71 49 24 27 28 42 48 50 55 41 38 39 47 61 54 54 36 45 46 33 32 37 50 57 85 89 32 23 23 23 33 19
85 88 88 90 93 91 95 94 93 92 92 92 79 72 36 42 27 27 32 38 28 36 42 55 54 52 44 75 96 67 57 34 49 63 89 73 79 80 65 84 50 23 22 26 40 43 29
85 89 92 95 95 96 94 94 94 92 93 94 73 65 42 52 50 48 32 31 38 32 57 49 51 54 58 77 84 63 82 49 43 30 52 60 76 90 73 97 80 22 26 38 40 28 29
92 95 95 96 96 95 94 92 93 94 96 92 74 56 49 49 61 58 59 55 53 46 36 49 39 46 43 52 77 82 96 94 62 54 33 48 40 50 42 44 29 24 25 25 28 32 31

GFSGBSN_sfc_rhum_042.txt.gz
RH
78 84 84 84 85 93 90 90 91 91 90 89 90 90 88 86 85 90 93 82 82 80 82 85 81 80 62 44 26 29 77 69 26 16 15 13 11 10 11 9 8 10 9 8 9 10 16
78 82 84 86 84 86 92 91 91 91 90 90 90 90 90 89 89 91 93 88 81 81 80 85 79 82 62 37 9 13 17 30 12 13 14 11 10 9 10 11 9 9 9 10 11 14 14
72 79 82 86 86 87 94 93 92 92 91 91 90 90 89 89 90 92 93 94 85 81 84 80 78 57 46 31 10 11 15 14 11 12 13 10 10 11 12 16 12 10 12 11 13 14 22
74 77 81 82 86 87 92 94 93 92 92 91 90 89 89 89 90 92 92 93 93 84 82 78 79 56 43 14 12 12 12 15 13 12 12 11 12 13 15 16 13 10 12 19 15 14 14
74 76 79 83 87 85 84 94 94 92 92 91 90 89 88 88 90 92 92 92 92 85 82 77 71 56 33 23 14 11 11 12 12 13 14 12 15 18 17 21 18 14 18 21 19 11 14
73 74 77 79 84 87 85 87 95 94 93 92 90 89 88 88 91 91 91 91 85 85 75 47 40 46 34 17 10 9 9 10 14 16 18 18 18 21 20 20 22 23 16 15 17 12 12
73 73 73 74 78 83 86 85 92 95 93 92 90 88 87 88 90 90 86 62 61 65 50 28 23 20 12 11 10 11 9 10 14 18 24 22 23 26 22 19 16 15 14 14 10 9 11
76 76 75 74 74 80 81 82 87 96 93 92 89 88 86 88 89 92 77 55 27 35 46 31 19 18 14 15 17 11 8 13 18 21 35 33 24 18 19 16 16 12 19 17 9 8 10
78 78 76 76 75 78 80 83 84 95 94 93 89 87 87 88 93 86 59 41 26 32 45 27 23 12 15 14 16 12 9 10 14 24 24 31 24 25 14 14 12 14 28 26 22 11 8
77 80 79 76 75 77 80 82 86 88 95 94 89 87 89 93 87 50 49 36 33 38 58 24 19 13 13 14 17 10 8 10 15 18 25 33 31 25 20 13 12 23 24 20 19 18 18
72 78 80 78 77 79 83 85 86 84 95 93 90 89 93 94 61 46 30 27 30 48 74 15 17 10 13 16 13 11 9 10 19 18 18 45 44 26 22 17 15 28 25 24 15 15 32
76 75 80 79 79 80 84 85 86 84 95 93 91 91 94 84 72 56 44 46 48 74 58 16 12 15 15 14 13 10 11 11 11 17 20 35 26 21 16 15 14 24 25 20 17 22 43
82 75 79 81 79 80 81 86 87 85 94 94 92 92 88 49 52 44 53 54 68 62 17 17 16 16 16 17 14 12 15 17 17 24 23 20 18 15 16 17 17 16 20 42 84 81 48
75 76 75 82 81 80 82 86 86 85 93 95 93 93 88 54 47 55 58 90 66 27 28 12 13 15 19 15 15 13 16 15 14 14 16 22 31 17 15 17 39 30 21 62 63 80 41
75 76 76 79 83 80 84 86 86 86 94 95 94 79 72 69 68 63 78 91 50 28 16 16 14 19 19 14 14 15 16 14 13 13 21 34 34 28 17 14 23 29 24 22 28 59 66
72 78 77 79 84 82 82 86 87 86 96 95 91 71 67 65 70 74 90 69 40 24 16 14 18 17 21 16 17 16 17 14 12 11 22 38 61 39 21 17 17 18 16 32 31 50 46
76 77 76 77 81 84 80 88 87 88 96 92 81 76 50 62 70 83 75 58 43 23 18 18 17 17 17 17 16 17 15 12 12 15 17 34 57 49 23 22 16 24 26 20 18 33 56
81 77 76 76 80 86 79 86 87 92 95 98 82 77 58 66 78 53 61 42 40 29 20 20 18 16 17 18 18 16 16 14 13 16 22 20 25 42 27 17 17 18 22 22 62 40 45
82 77 76 79 81 88 78 82 89 92 94 96 81 73 75 66 68 61 47 41 34 30 26 23 23 18 15 19 22 18 17 32 27 19 23 23 30 45 28 22 20 22 18 17 22 39 45
78 76 76 79 81 89 78 82 90 87 94 93 78 87 99 85 43 43 52 43 40 29 22 21 22 17 19 22 20 24 20 33 32 26 58 44 26 27 40 23 21 28 23 18 23 66 49
76 76 77 81 86 89 79 83 90 90 94 98 90 62 76 94 72 43 48 37 38 33 22 21 22 19 22 28 23 23 20 37 32 51 32 30 31 24 18 17 19 24 22 20 21 24 41
74 76 78 79 84 84 83 88 86 90 95 99 85 67 57 47 55 47 53 46 35 26 24 29 25 20 21 25 21 24 23 34 32 36 33 30 40 38 39 27 24 27 22 19 18 19 17
72 76 84 83 85 77 84 89 88 88 97 97 70 58 54 62 55 49 51 43 39 28 26 21 24 25 29 25 25 31 27 29 25 36 39 36 51 57 64 35 35 59 35 25 20 18 20
78 78 86 83 77 80 85 89 91 91 94 97 57 72 83 63 47 42 44 42 42 28 42 25 26 29 35 30 30 31 30 31 32 33 30 43 52 72 79 72 77 25 15 14 18 15 13
79 81 83 79 81 83 86 88 90 92 94 92 88 98 90 92 39 38 42 43 38 35 57 34 40 34 34 39 54 60 69 68 50 31 32 33 56 81 97 60 34 24 17 20 22 22 18
79 82 80 80 83 85 86 88 90 90 90 89 94 94 98 78 53 34 39 37 38 59 71 54 44 40 40 57 77 68 71 42 43 40 27 30 45 78 75 91 87 37 22 19 20 47 24
78 78 79 82 86 87 87 88 91 92 89 92 94 89 98 90 40 36 36 39 44 78 93 56 53 55 48 94 97 83 67 30 55 67 92 80 88 90 79 95 65 26 22 23 52 57 33
78 79 81 85 87 88 89 90 91 88 85 94 93 91 98 83 41 36 34 32 45 79 92 56 57 55 74 88 91 80 92 62 50 35 65 76 87 97 86 100 91 22 24 44 46 38 35
81 83 85 87 88 88 87 89 90 90 91 95 97 88 92 91 66 67 61 53 49 60 55 57 49 50 52 62 81 90 99 98 81 70 28 58 48 66 60 65 36 25 29 28 34 37 40